Location: Prague
(50.0830°N, 14.4670°E)
Time: 17:57:00
(UTC+02:00)

DOVE 4 - Pass Details

Date: 07 April 2023
Orbit: 584 x 791 km, 97.8° (Epoch: 03 June)

Event Time Altitude Azimuth Distance (km) Brightness Sun altitude
Rises 23:39:42 0° 16° (NNE) 3,075 ? -30.0°
Reaches altitude 10° 23:42:04 10° 21° (NNE) 2,119 ? -30.2°
Enters shadow 23:44:18 27° 32° (NNE) 1,273 ? -30.3°
